Conroe, TX

1:45 PM CST on February 24, 2017 (GMT -0600)
Montgomery County

Weather History for KCXO - January, 2013

Change the Weather History Date:

Thursday, January 17, 2013

  Actual Average Record
Temperature  
Mean Temperature 43 °F -  
Max Temperature 62 °F 60 °F 77 °F (1999)
Min Temperature 24 °F 39 °F 24 °F (2013)
Degree Days  
Heating Degree Days 22    
Moisture  
Dew Point 29 °F    
Average Humidity 69    
Maximum Humidity 96    
Minimum Humidity 30    
Precipitation  
Precipitation 0.00 in - - ()
Sea Level Pressure  
Sea Level Pressure 30.39 in    
Wind  
Wind Speed 2 mph (NNW)    
Max Wind Speed 13 mph    
Max Gust Speed 21 mph    
Visibility 10 miles    
Events      
Averages and records for this station are not official NWS values.
T = Trace of Precipitation, MM = Missing Value Source: NWS Daily Summary

Daily Weather History Graph

Daily Weather History Graph

Search for Another Location

Airport or City:

Trip Planner

Search our weather history database for the weather conditions in past years. The results will help you decide how hot, cold, wet, or windy it might be!

Date:

Astronomy

Jan. 17, 2013 Rise Set
Actual Time 7:18 AM CST 5:45 PM CST
Civil Twilight 6:52 AM CST 6:11 PM CST
Nautical Twilight 6:23 AM CST 6:40 PM CST
Astronomical Twilight 5:54 AM CST 7:09 PM CST
Moon 10:56 AM CST (1/17) No Moon Set
Length of Visible Light 11h 18m
Length of Day
10h 26m
Waxing Crescent, 38% of the Moon is Illuminated
Jan 17
Waxing Crescent
Jan 18
First Quarter
Jan 26
Full
Feb 3
Last Quarter
Feb 10
New

Hourly Weather History & Observations

Time (CST) Temp. Dew Point Humidity Pressure Visibility Wind Dir Wind Speed Gust Speed Precip Events Conditions
12:53 AM 26.1 °F 24.1 °F 92% 30.28 in 10.0 mi Calm Calm - N/A   Clear
1:53 AM 25.0 °F 23.0 °F 92% 30.30 in 10.0 mi Calm Calm - N/A   Clear
2:53 AM 25.0 °F 23.0 °F 92% 30.31 in 10.0 mi Calm Calm - N/A   Clear
3:53 AM 24.1 °F 21.9 °F 91% 30.32 in 10.0 mi Calm Calm - N/A   Clear
4:53 AM 24.1 °F 21.9 °F 91% 30.33 in 10.0 mi Calm Calm - N/A   Clear
6:53 AM 25.0 °F 21.9 °F 88% 30.35 in 10.0 mi Calm Calm - N/A   Clear
7:53 AM 26.1 °F 24.1 °F 92% 30.38 in 10.0 mi Calm Calm - N/A   Clear
8:53 AM 37.0 °F 33.1 °F 86% 30.40 in 10.0 mi Calm Calm - N/A   Clear
9:53 AM 48.0 °F 30.0 °F 50% 30.43 in 10.0 mi Calm Calm - N/A   Clear
10:53 AM 53.1 °F 23.0 °F 31% 30.43 in 10.0 mi NW 8.1 mph - N/A   Clear
11:53 AM 55.9 °F 25.0 °F 30% 30.40 in 10.0 mi Variable 5.8 mph 19.6 mph N/A   Clear
12:53 PM 59.0 °F 30.0 °F 33% 30.38 in 10.0 mi NNW 11.5 mph 20.7 mph N/A   Clear
1:53 PM 60.1 °F 32.0 °F 35% 30.35 in 10.0 mi NNW 12.7 mph 18.4 mph N/A   Clear
2:53 PM 62.1 °F 33.1 °F 34% 30.36 in 10.0 mi NNW 12.7 mph 18.4 mph N/A   Clear
3:53 PM 62.1 °F 34.0 °F 35% 30.37 in 10.0 mi NNW 12.7 mph - N/A   Clear
4:53 PM 60.1 °F 35.1 °F 39% 30.39 in 10.0 mi NNW 9.2 mph - N/A   Clear
5:53 PM 53.1 °F 35.1 °F 50% 30.40 in 10.0 mi North 3.5 mph - N/A   Clear
6:53 PM 43.0 °F 37.0 °F 80% 30.43 in 10.0 mi Calm Calm - N/A   Clear
7:53 PM 39.0 °F 35.1 °F 86% 30.44 in 10.0 mi Calm Calm - N/A   Clear
8:53 PM 37.0 °F 34.0 °F 89% 30.45 in 10.0 mi Calm Calm - N/A   Clear
9:53 PM 35.1 °F 33.1 °F 92% 30.46 in 10.0 mi Calm Calm - N/A   Clear
10:53 PM 34.0 °F 32.0 °F 92% 30.48 in 10.0 mi Calm Calm - N/A   Clear
11:53 PM 32.0 °F 30.9 °F 96% 30.48 in 10.0 mi Calm Calm - N/A   Clear